Location: Newark
(34.9500°N, 139.9667°E)
Time: 06:16:27
(UTC+00:00)

Vanguard 1 Rocket - Pass Details

Date: 16 December 2019
Orbit: 650 x 4226 km, 34.3° (Epoch: 24 January)

Event Time Altitude Azimuth Distance (km) Brightness Sun altitude
Rises 17:16:48 0° 278° (W) 4,755 - -53.2°
Reaches altitude 10° 17:22:29 10° 254° (WSW) 3,049 - -52.1°
Maximum altitude 17:25:24 13° 229° (SW) 2,505 - -51.5°
Drops below altitude 10° 17:27:52 10° 202° (SSW) 2,458 - -51.0°
Sets 17:31:25 0° 172° (S) 3,100 - -50.3°
